{"data":{"norad_id":58386,"epoch":"2026-09-20T07:23:16.586304Z","epoch_age_seconds":160334,"freshness":"FRESH","line1":"1 58386U 23178N   26263.30783086  .00001742  00000+0  62675-4 0  9998","line2":"2 58386  53.1603 172.9671 0001196  82.5655 277.5483 15.34405862159729","mean_motion":15.34405862,"eccentricity":0.0001196,"inclination_deg":53.1603,"raan_deg":172.9671,"arg_perigee_deg":82.5655,"mean_anomaly_deg":277.5483,"bstar":6.2675e-5,"rev_number":15972,"period_min":93.84739954806,"perigee_km":461.86765475428,"apogee_km":463.50397957215,"semimajor_km":6840.8228171632,"source":"CELESTRAK","updated_at":"2026-09-21T09:00:33.867305Z"}}